{"data":{"norad_id":52878,"intl_designator":"2022-062BA","name":"STARLINK-4171","alt_names":[],"object_type":"PAYLOAD","status":"ACTIVE","operator":null,"country":"US","launch_date":"2022-06-17","launch_site_code":"AFETR","launch_vehicle":null,"mission":null,"orbit_class":"UNKNOWN","rcs_meters":null,"size_class":null,"mass_kg":null,"dimensions":null,"purposes":["comms"],"wikipedia_slug":null,"has_3d_model":false,"image_url":null,"decayed_at":null,"tle_current":{"epoch":"2026-09-19T13:44:31.347456Z","epoch_age_seconds":149007,"freshness":"FRESH","line1":"1 52878U 22062BA  26262.57258504  .00000986  00000+0  40332-4 0  9994","line2":"2 52878  53.1588 207.7200 0001354  92.4946 267.6212 15.34386139235556","mean_motion":15.34386139,"eccentricity":0.0001354,"inclination_deg":53.1588,"raan_deg":207.72,"arg_perigee_deg":92.4946,"mean_anomaly_deg":267.6212,"bstar":4.0332e-5,"rev_number":23555,"period_min":93.848605862569,"perigee_km":461.81818298356,"apogee_km":463.67069367706,"semimajor_km":6840.8814383303,"source":"CELESTRAK","updated_at":"2026-09-20T09:00:40.137698Z"}}}